TimePST,TemperatureF,Dew PointF,Humidity,Sea Level PressureIn,VisibilityMPH,Wind Direction,Wind SpeedMPH,Gust SpeedMPH,PrecipitationIn,Events,Conditions,WindDirDegrees,DateUTC
12:53 AM,45.0,43.0,93,30.20,10.0,ESE,3.5,-,N/A,,Clear,110,2013-02-22 08:53:00
1:53 AM,43.0,42.1,97,30.21,10.0,NE,3.5,-,N/A,,Partly Cloudy,50,2013-02-22 09:53:00
2:53 AM,42.1,41.0,96,30.20,10.0,ENE,3.5,-,N/A,,Partly Cloudy,60,2013-02-22 10:53:00
3:53 AM,41.0,41.0,100,30.20,10.0,ENE,3.5,-,N/A,,Clear,60,2013-02-22 11:53:00
4:53 AM,39.9,39.9,100,30.21,10.0,ENE,3.5,-,N/A,,Clear,70,2013-02-22 12:53:00
5:53 AM,39.9,39.9,100,30.23,10.0,NE,3.5,-,N/A,,Clear,50,2013-02-22 13:53:00
6:53 AM,41.0,41.0,100,30.25,10.0,Calm,Calm,-,N/A,,Partly Cloudy,0,2013-02-22 14:53:00
7:53 AM,45.0,45.0,100,30.26,9.0,East,3.5,-,N/A,,Partly Cloudy,90,2013-02-22 15:53:00
8:53 AM,50.0,43.0,77,30.27,10.0,SE,5.8,-,N/A,,Partly Cloudy,140,2013-02-22 16:53:00
9:53 AM,51.1,43.0,74,30.28,10.0,SSW,3.5,-,N/A,,Partly Cloudy,200,2013-02-22 17:53:00
10:53 AM,54.0,43.0,66,30.28,10.0,SW,4.6,-,N/A,,Partly Cloudy,220,2013-02-22 18:53:00
11:53 AM,55.9,43.0,62,30.27,10.0,WSW,4.6,-,N/A,,Partly Cloudy,240,2013-02-22 19:53:00
12:53 PM,59.0,45.0,60,30.26,10.0,West,5.8,-,N/A,,Partly Cloudy,280,2013-02-22 20:53:00
1:53 PM,59.0,44.1,58,30.23,10.0,West,5.8,-,N/A,,Partly Cloudy,260,2013-02-22 21:53:00
2:53 PM,60.1,44.1,55,30.22,10.0,West,13.8,-,N/A,,Partly Cloudy,280,2013-02-22 22:53:00
3:53 PM,57.9,44.1,60,30.23,10.0,West,13.8,-,N/A,,Scattered Clouds,270,2013-02-22 23:53:00
4:53 PM,55.9,48.9,77,30.23,10.0,West,12.7,-,N/A,,Mostly Cloudy,260,2013-02-23 00:53:00
5:53 PM,54.0,50.0,86,30.23,10.0,West,11.5,-,N/A,,Mostly Cloudy,270,2013-02-23 01:53:00
6:53 PM,53.1,50.0,89,30.23,10.0,West,15.0,-,N/A,,Mostly Cloudy,270,2013-02-23 02:53:00
7:53 PM,52.0,48.9,89,30.24,10.0,West,13.8,-,N/A,,Mostly Cloudy,270,2013-02-23 03:53:00
8:53 PM,52.0,48.9,89,30.23,10.0,West,11.5,-,N/A,,Overcast,260,2013-02-23 04:53:00
9:53 PM,52.0,48.9,89,30.27,10.0,West,11.5,-,N/A,,Mostly Cloudy,270,2013-02-23 05:53:00
10:53 PM,52.0,50.0,93,30.27,10.0,WSW,8.1,-,N/A,,Mostly Cloudy,250,2013-02-23 06:53:00
11:53 PM,53.1,48.9,86,30.26,10.0,WNW,9.2,-,N/A,,Mostly Cloudy,290,2013-02-23 07:53:00